Current weather by "City, St" or "zip code"  
 

Current Conditions: Farmingdale - Republic Airport, NY

Fair


46.0 F

Last Updated on Oct 31 2020, 2:53 pm EDT
Humidity: 50%
Wind Speed: SW 6.9 mph
Barometer 30.51 in
Dewpoint: 28.0 F
Visibility: 10.00 mi
Precip: --
Heat Index: NA
Wind Chill: 42 F
Current conditions at:

Farmingdale - Republic Airport, NY (KFRG)

Lat: 40.73443 Lon: 73.41639

Local Radar Image active severe weather and emergency alerts image image weather storm and storm spotter reports image weather observation monitoring service image
Local
Radar
Active
Alerts
Storm Reports Obs
Monitoring

Sign-up For Email & Text Message Weather Alert Notification Services



Advertise Here

Observation History for Farmingdale - Republic Airport, NY


Time Wind
(mph)
Vis
(mi)
Weather Precip (in) Temperature (F) Relative
Humidity
Wind
Chill
(F)
Heat
Index
(F)
Pressure
Air Dwpt altimeter
(in)
sea level
(mb)
Rmks
2:53 pm EDT SW 6.9 10.00 Fair -- 46.0 28.0 50% 42 NA 30.51 1033.1
1:53 pm EDT SE 9.2 10.00 Fair -- 47.0 28.9 50% 43 NA 30.52 1033.4
12:53 pm EDT S 4.6 10.00 Fair -- 45.0 28.0 52% 43 NA 30.53 1034.0
11:53 am EDT 4.6 10.00 Fair -- 45.0 28.9 54% 43 NA 30.55 1034.4
10:53 am EDT NE 6.9 10.00 Fair -- 43.0 30.0 60% 39 NA 30.53 1034.0
9:53 am EDT NE 9.2 10.00 Fair -- 41.0 30.9 67% 35 NA 30.52 1033.6
8:53 am EDT N 4.6 10.00 Fair -- 39.0 28.9 67% 36 NA 30.51 1033.1
7:53 am EDT N 0.0 10.00 Fair -- 35.0 28.0 76% NA NA 30.48 1032.2
6:53 am EDT N 4.6 10.00 Fair -- 34.0 28.0 79% 30 NA 30.46 1031.4
5:53 am EDT NW 3.5 10.00 Fair -- 34.0 27.0 76% NA NA 30.43 1030.5
4:53 am EDT N 4.6 10.00 Fair -- 35.0 28.0 76% 31 NA 30.39 1029.0
3:53 am EDT N 5.8 10.00 Fair -- 35.0 28.0 76% 30 NA 30.37 1028.3
2:53 am EDT N 6.9 10.00 Fair -- 37.0 28.0 70% 32 NA 30.36 1028.1
1:53 am EDT N 6.9 10.00 Fair -- 37.0 28.9 73% 32 NA 30.33 1027.1
12:53 am EDT N 6.9 10.00 Fair -- 37.0 30.0 76% 32 NA 30.31 1026.3
11:53 pm EDT NW 4.6 10.00 Fair -- 36.0 30.0 79% 32 NA 30.29 1025.8
10:53 pm EDT NW 4.6 10.00 Fair -- 38.0 30.0 73% 34 NA 30.27 1025.0
9:53 pm EDT N 6.9 10.00 Fair -- 39.0 30.0 70% 34 NA 30.23 1023.9
8:53 pm EDT N 6.9 10.00 Overcast -- 41.0 32.0 70% 36 NA 30.19 1022.3
7:53 pm EDT N 8.1 10.00 Overcast -- 42.0 32.0 68% 37 NA 30.16 1021.2
6:53 pm EDT N 5.8 10.00 Overcast -- 41.0 33.1 73% 37 NA 30.12 1019.9
5:53 pm EDT N 5.8 10.00 Overcast -- 42.0 34.0 73% 38 NA 30.08 1018.7
4:53 pm EDT N 8.1 10.00 Overcast -- 42.0 34.0 73% 37 NA 30.05 1017.4
3:53 pm EDT N 11.5 10.00 Overcast -- 42.0 34.0 73% 36 NA 29.99 1015.6

Regional Weather Observation


White Plains - Westchester County Airport, NY (KHPN)

Fair
44.0 F

Farmingdale - Republic Airport, NY (KFRG)

Fair
46.0 F

New York, La Guardia Airport, NY (KLGA)

A Few Clouds
47.0 F

Islip, Long Island Mac Arthur Airport, NY (KISP)

A Few Clouds
46.0 F

New York City, Central Park, NY (KNYC)

Fair
46.0 F

Bridgeport, Sikorsky Memorial Airport, CT (KBDR)

Fair
44.0 F